Humberto de Campos, Brazil
Current Conditions -  °F | °C
As of 9:00 PM on Tuesday 25 Nov 2014 (Local Time) from SBSL Reporting Station
Broken Clouds Broken Clouds  
Wind Chill: 82°   Ceiling: 1700
Heat Index: 87°   Visibility: 6mi
Dew Point: 72°   Wind: 16mph
Humidity: 70%   Direction: 50°NE
Pressure: 29.83"   Gusts: NA
Location:  2.6°S, 43.46°W
Report Text: SBSL 260000Z 05014KT 9999 BKN017 28/22 Q1010
Loading
Personal Weather Stations






























Interactive Weather Map New forecast layout! Learn more

10-Day Weather Forecast

Advertisements
Track Severe Weather on mobile